This is the latest recevied weather packets stored in our database for station/object KC5L-7. If no packets are shown the sender has not sent any weather packets the latest 10 day(s).
| Time | Temp. | Humidity | Pressure | Rain* | Wind** | Luminosity | Snow |
|---|---|---|---|---|---|---|---|
| 1788416479 | 29.44° C | 66% | 1011.3 hPa | 0 mm | - | - | - |
| 1788415279 | 29.44° C | 66% | 1011.1 hPa | 0 mm | - | - | - |
| 1788414679 | 30° C | 66% | 1011 hPa | 0 mm | - | - | - |
| 1788414079 | 30° C | 64% | 1011 hPa | 0 mm | - | - | - |
| 1788413479 | 30° C | 63% | 1011.1 hPa | 0 mm | - | - | - |
| 1788412879 | 30.56° C | 62% | 1011 hPa | 0 mm | - | - | - |
| 1788412279 | 30.56° C | 61% | 1010.9 hPa | 0 mm | - | - | - |
| 1788411679 | 30.56° C | 60% | 1010.8 hPa | 0 mm | - | - | - |
| 1788411079 | 31.11° C | 58% | 1010.8 hPa | 0 mm | - | - | - |
| 1788410479 | 31.11° C | 57% | 1010.6 hPa | 0 mm | - | - | - |
| 1788409879 | 31.11° C | 56% | 1010.5 hPa | 0 mm | - | - | - |
| 1788409280 | 31.67° C | 54% | 1010.5 hPa | 0 mm | - | - | - |
| 1788408679 | 31.67° C | 53% | 1010.4 hPa | 0 mm | - | - | - |
| 1788408079 | 32.22° C | 51% | 1010.2 hPa | 0 mm | - | - | - |
| 1788407479 | 32.22° C | 55% | 1010.1 hPa | 0 mm | - | - | - |
| 1788406880 | 32.22° C | 55% | 1009.8 hPa | 0 mm | - | - | - |
| 1788406279 | 32.22° C | 54% | 1009.5 hPa | 0 mm | - | - | - |
| 1788405679 | 32.22° C | 53% | 1009.3 hPa | 0 mm | - | - | - |
| 1788405079 | 32.22° C | 52% | 1009.3 hPa | 0 mm | - | - | - |
| 1788404479 | 31.67° C | 51% | 1009.1 hPa | 0 mm | - | - | - |
| 1788403879 | 31.67° C | 51% | 1008.9 hPa | 0 mm | - | - | - |
| 1788402679 | 32.22° C | 50% | 1008.7 hPa | 0 mm | - | - | - |
| 1788401479 | 32.22° C | 48% | 1008.4 hPa | 0 mm | - | - | - |
| 1788400879 | 32.78° C | 48% | 1008.2 hPa | 0 mm | - | - | - |
| 1788400279 | 32.78° C | 47% | 1008 hPa | 0 mm | - | - | - |
* Rain latest hour (hover to see other rain measurements)
** Current wind speed in m/s (hover to see current wind gust speed)